Wind_Speed
6 7 7 7 6 5 4 6 7 7 7 7 7 9 12 10 7 6 9 12 15 21 20 15 15 14 14 14 8 7 9 10 7 4 12 10 17 16 12 9 5 4 6 7 5
7 7 8 8 7 6 5 6 6 6 6 6 6 5 9 13 11 12 3 5 11 18 22 18 18 17 16 13 12 4 5 15 3 9 11 17 17 16 13 11 4 5 1 6 7
7 8 8 9 10 8 7 6 6 6 6 6 6 6 6 9 14 13 10 9 13 17 24 24 22 20 18 10 11 17 14 7 5 10 12 12 17 16 22 14 7 5 1 3 6
9 9 10 11 10 9 9 8 8 7 5 5 5 6 5 9 11 16 14 13 11 16 15 18 21 17 16 19 13 25 14 8 6 9 11 13 18 16 16 8 8 9 5 3 5
11 11 11 10 10 10 10 11 11 9 5 4 3 3 4 5 8 11 18 17 14 13 16 17 18 19 16 22 16 14 20 16 8 10 17 21 21 19 9 17 9 9 4 2 7
12 11 10 9 8 9 9 9 9 9 8 6 4 2 3 1 6 9 12 18 18 15 17 17 13 19 23 20 20 20 18 18 12 9 12 18 9 25 17 15 14 14 7 2 6
15 13 12 11 10 9 10 10 8 8 7 6 6 6 7 4 4 7 9 15 19 19 16 18 24 26 23 23 25 23 18 11 19 9 16 17 14 20 17 12 15 18 12 7 6
19 17 14 13 12 11 11 11 10 8 8 7 6 8 8 7 7 9 7 10 19 21 21 20 27 24 26 25 26 21 16 19 13 9 19 15 18 18 15 7 14 17 15 5 8
19 19 19 17 16 16 16 15 12 12 11 9 6 9 13 8 9 7 11 8 12 22 26 25 24 28 27 28 30 25 16 17 14 12 13 12 21 17 16 16 9 11 15 5 6
21 20 20 21 20 20 23 21 19 17 15 14 10 10 12 11 9 8 11 10 12 16 26 29 26 24 26 29 24 19 16 19 16 12 14 15 17 18 11 15 17 0 7 1 4
25 24 24 25 22 23 28 27 25 23 21 21 16 14 16 13 12 11 11 12 13 13 17 26 28 25 20 19 21 22 20 21 20 22 17 18 24 13 15 14 6 3 4 3 6
34 32 31 32 29 28 29 29 30 29 23 24 23 17 24 20 13 15 14 12 13 13 16 17 15 22 25 23 21 28 24 23 22 17 24 27 19 18 13 7 2 1 5 7 6
39 38 36 36 36 37 34 32 34 35 30 20 27 23 23 25 18 16 17 16 15 17 18 16 11 21 26 27 24 28 28 26 24 26 22 20 26 24 16 11 4 1 3 9 7
42 42 41 41 44 42 42 37 39 38 40 29 34 32 28 28 22 22 18 20 21 18 21 18 18 21 24 30 29 26 24 28 34 30 28 32 34 26 21 15 6 8 2 9 9
47 46 45 43 43 47 47 45 44 44 49 36 38 36 33 34 28 26 27 27 23 21 25 13 20 22 22 21 30 19 31 33 35 33 32 35 34 28 29 19 12 8 8 7 8
53 52 50 49 46 46 50 48 47 48 54 44 44 37 34 33 30 31 29 29 29 32 30 22 25 23 21 24 25 25 32 38 39 36 45 38 37 26 33 20 13 9 10 12 8
58 59 58 55 56 51 51 52 52 53 51 47 51 45 42 42 39 38 37 34 32 33 30 28 28 26 25 26 27 29 36 43 47 53 50 40 41 25 24 21 13 11 7 11 11
61 61 63 65 61 61 58 58 57 54 54 57 55 55 48 46 45 47 46 43 39 35 32 34 34 29 25 25 27 31 38 45 53 53 49 46 50 32 20 17 17 9 11 10 7
67 67 69 70 68 66 66 66 64 61 62 61 58 57 56 53 51 51 52 50 45 43 39 36 38 30 33 29 30 30 40 38 46 49 49 49 52 38 30 22 18 13 16 16 8
73 71 67 72 74 75 75 72 70 70 70 68 65 64 64 62 60 56 55 53 50 45 41 39 42 36 35 37 39 38 31 38 45 49 56 49 50 41 35 25 18 19 21 23 17
69 69 69 71 73 75 76 72 68 66 72 72 73 72 68 67 68 65 60 57 56 49 39 42 46 40 42 49 42 41 42 42 41 40 45 45 42 42 35 30 23 25 24 24 22
79 78 69 72 67 70 70 69 71 73 69 75 78 77 76 74 73 73 67 64 63 61 61 56 50 53 51 46 46 46 46 43 45 44 42 37 31 31 38 37 34 23 21 20 18
82 76 75 69 67 66 70 72 74 77 78 77 81 83 83 81 79 79 76 72 71 68 69 63 63 60 56 55 56 59 50 47 44 43 45 43 34 22 37 43 39 31 27 26 34
61 52 46 47 57 60 61 67 73 77 81 83 83 88 87 86 85 85 85 80 76 72 74 70 68 68 65 59 55 57 55 54 51 52 47 45 41 23 35 47 43 38 25 27 33
34 29 20 24 30 39 43 53 61 66 75 80 83 87 91 92 90 90 89 87 83 78 75 74 74 77 73 67 55 57 56 55 55 52 53 39 44 33 28 49 48 43 29 28 37
25 17 11 9 25 29 33 37 36 48 56 64 74 76 86 89 92 90 93 91 88 82 75 76 79 79 80 73 66 59 59 58 57 52 53 49 45 38 33 44 53 45 34 31 26
22 17 11 8 13 24 32 36 39 25 35 42 51 60 67 75 83 91 96 99 93 85 81 76 79 80 79 75 67 51 68 66 62 56 53 52 43 38 37 39 54 58 46 28 36
Wind_Direction
344 345 342 337 337 327 334 350 349 328 314 305 307 258 247 233 224 240 216 214 213 225 223 217 189 188 197 163 164 41 130 120 112 40 9 33 25 19 31 40 9 235 164 167 167
321 332 334 335 336 331 319 315 328 335 345 317 295 286 255 245 220 232 172 206 215 225 230 217 203 199 209 181 185 173 122 117 101 349 358 342 14 14 28 38 9 254 244 231 238
308 318 327 329 329 330 322 317 317 318 307 318 332 291 261 249 232 224 219 224 210 210 224 223 219 207 215 170 198 173 126 135 91 20 352 16 18 28 22 15 339 308 40 230 205
296 301 310 315 319 317 323 320 315 305 314 305 299 330 275 251 239 225 214 226 222 225 224 223 229 222 214 150 152 168 159 151 67 25 7 349 353 353 22 27 357 14 351 238 215
286 289 297 301 307 310 313 324 326 322 314 310 295 308 314 261 260 228 214 221 228 221 220 224 226 219 215 177 167 174 128 129 89 15 350 355 357 340 9 5 359 15 9 214 207
281 279 279 286 295 297 303 309 317 321 324 327 306 252 284 329 256 264 231 221 227 225 222 218 220 215 209 196 179 214 167 132 170 156 298 329 281 331 340 356 358 2 8 356 194
270 264 263 268 273 282 285 285 288 301 312 316 320 298 267 291 283 280 260 231 218 227 224 213 214 221 212 211 194 217 232 171 149 156 195 276 316 333 339 2 8 345 359 356 172
269 265 262 260 267 273 282 284 288 289 290 292 303 302 308 289 267 270 259 244 226 225 227 216 220 214 219 222 227 231 241 258 183 166 222 250 288 334 355 354 351 351 345 23 136
270 270 269 266 268 272 276 279 283 283 286 285 272 273 290 289 283 242 268 254 242 227 230 227 225 221 219 220 232 241 266 232 186 182 243 260 272 326 347 3 347 330 335 349 124
276 274 272 267 268 270 272 272 269 269 274 275 277 265 269 271 276 276 248 254 250 235 234 237 232 234 226 222 234 241 255 235 185 176 232 252 280 310 335 2 16 119 305 335 146
270 271 273 272 266 263 265 267 269 268 270 267 266 271 265 264 263 264 260 261 246 247 247 246 245 235 245 239 225 221 228 215 174 187 212 258 279 302 300 336 4 348 271 197 179
268 267 268 269 268 265 266 270 269 261 252 258 262 253 268 262 256 259 264 263 261 245 239 246 261 243 232 230 216 222 204 208 208 202 212 228 270 281 275 305 253 8 300 238 175
264 263 264 264 265 264 264 265 268 266 259 239 259 247 250 267 259 258 263 258 262 249 251 248 257 248 236 231 217 209 211 201 218 209 222 229 254 260 274 277 344 239 314 249 199
269 268 267 266 266 262 262 260 261 263 260 246 249 255 256 265 261 259 252 258 255 251 242 241 232 239 238 227 226 214 203 202 207 215 216 218 232 250 248 252 258 171 195 232 202
269 267 266 263 263 266 264 261 259 260 262 259 250 255 252 259 260 251 245 246 246 245 253 246 243 242 248 254 231 197 204 200 209 218 232 222 238 219 227 230 215 235 205 231 225
269 268 266 266 261 259 261 260 258 257 258 259 257 254 253 252 246 245 247 245 244 245 249 238 235 240 238 241 238 211 203 205 207 215 231 227 234 235 224 254 261 255 250 227 257
268 268 268 265 266 261 259 259 257 254 258 256 257 252 249 247 246 244 245 248 252 255 256 243 245 240 236 236 235 217 207 206 211 214 231 229 234 226 222 235 244 261 246 235 273
267 266 266 265 263 263 259 256 255 256 252 253 254 257 252 250 248 251 250 247 246 250 247 239 235 241 243 239 243 234 222 218 215 220 229 228 233 236 211 240 244 254 258 262 283
265 264 265 263 261 259 258 257 258 255 253 250 251 254 255 251 245 244 248 248 244 248 249 247 241 233 233 232 235 233 233 224 223 230 231 232 234 236 226 221 232 258 274 277 279
268 265 268 264 261 260 257 255 254 252 249 248 245 245 246 247 245 241 242 245 241 241 244 244 241 226 230 229 226 226 232 227 226 226 232 237 237 239 233 221 234 237 249 278 282
275 269 271 265 261 258 256 254 251 247 246 243 241 240 238 239 243 243 239 239 239 233 227 239 242 223 221 228 228 229 227 230 233 233 235 242 244 239 234 219 228 238 247 260 268
283 281 276 270 262 259 255 251 246 241 237 239 236 233 233 232 235 239 240 237 235 234 232 223 228 228 228 227 233 229 231 231 236 239 239 247 253 235 230 218 219 226 232 255 259
288 284 279 273 263 255 252 247 241 239 234 229 233 233 230 227 227 231 234 234 232 231 233 227 228 225 220 219 223 229 232 228 232 239 243 247 257 221 221 215 220 226 227 243 246
294 289 277 266 260 253 245 240 238 234 233 230 226 229 229 226 221 221 228 229 229 223 229 227 227 228 223 229 225 229 230 235 233 234 240 249 253 226 214 213 220 224 222 240 253
308 305 288 254 241 245 239 234 235 237 233 231 227 224 227 225 223 220 221 225 225 220 218 223 227 229 232 223 219 231 232 233 236 242 244 249 252 244 216 214 219 225 227 234 246
314 312 313 249 232 230 235 233 238 245 243 239 236 233 227 227 225 219 214 216 216 214 211 217 225 223 231 224 216 219 226 232 236 236 241 244 243 244 225 215 218 226 226 240 230
306 306 303 279 254 235 232 231 220 226 234 237 241 243 241 234 232 225 216 211 211 208 207 211 221 224 226 224 218 212 223 225 231 235 239 238 238 237 239 220 219 225 228 223 255
Height
5899 5897 5896 5895 5894 5892 5891 5889 5888 5886 5885 5885 5885 5885 5886 5888 5889 5888 5888 5888 5888 5888 5890 5892 5892 5892 5893 5897 5899 5900 5898 5901 5902 5902 5899 5901 5906 5905 5907 5905 5903 5904 5906 5907 5906
5897 5896 5895 5893 5892 5891 5889 5888 5887 5885 5884 5883 5883 5883 5883 5884 5886 5886 5887 5887 5888 5887 5888 5891 5891 5891 5891 5895 5898 5900 5898 5900 5902 5901 5903 5898 5899 5905 5908 5907 5905 5905 5904 5905 5906
5895 5894 5893 5891 5890 5889 5888 5886 5885 5884 5883 5881 5881 5881 5880 5880 5882 5884 5884 5885 5885 5886 5886 5887 5889 5891 5891 5895 5897 5899 5898 5902 5902 5901 5899 5900 5900 5903 5904 5907 5906 5906 5905 5905 5905
5893 5892 5891 5889 5887 5886 5885 5884 5883 5882 5881 5880 5879 5878 5878 5877 5878 5879 5882 5882 5883 5883 5883 5886 5887 5891 5893 5896 5899 5897 5897 5901 5904 5902 5899 5899 5900 5900 5905 5907 5903 5902 5904 5904 5902
5889 5889 5888 5886 5885 5884 5882 5881 5880 5879 5879 5878 5877 5877 5876 5875 5875 5875 5877 5879 5880 5881 5882 5884 5886 5890 5893 5896 5899 5899 5896 5899 5902 5904 5900 5899 5897 5900 5903 5905 5902 5904 5905 5904 5904
5886 5885 5884 5883 5882 5881 5880 5879 5878 5876 5876 5876 5876 5875 5875 5874 5873 5872 5874 5876 5877 5878 5880 5881 5885 5888 5888 5892 5896 5898 5894 5895 5899 5900 5902 5901 5901 5902 5903 5905 5899 5901 5904 5905 5904
5881 5881 5880 5879 5878 5877 5876 5875 5875 5874 5874 5874 5874 5873 5873 5873 5872 5870 5871 5872 5874 5875 5877 5880 5880 5881 5887 5889 5890 5892 5894 5893 5893 5898 5899 5901 5900 5903 5903 5906 5901 5897 5901 5902 5904
5877 5876 5875 5874 5874 5873 5872 5871 5871 5871 5871 5871 5872 5871 5870 5871 5870 5868 5869 5869 5871 5872 5874 5875 5875 5881 5882 5887 5888 5890 5894 5894 5894 5896 5896 5897 5900 5902 5904 5905 5903 5901 5899 5900 5903
5872 5871 5870 5869 5869 5868 5867 5867 5867 5866 5866 5867 5868 5868 5867 5868 5868 5868 5865 5866 5867 5868 5871 5871 5871 5875 5878 5881 5882 5885 5891 5894 5892 5893 5895 5895 5900 5900 5901 5902 5902 5903 5902 5901 5902
5865 5864 5863 5863 5863 5863 5860 5861 5862 5862 5863 5863 5864 5866 5864 5863 5863 5865 5865 5863 5863 5864 5865 5867 5869 5870 5872 5874 5877 5884 5888 5891 5891 5895 5894 5896 5900 5897 5900 5899 5902 5901 5902 5903 5903
5860 5859 5857 5856 5856 5856 5854 5855 5857 5858 5858 5858 5860 5861 5859 5859 5859 5860 5862 5862 5861 5862 5863 5862 5863 5867 5871 5874 5879 5882 5885 5889 5891 5893 5892 5896 5897 5895 5896 5899 5901 5903 5904 5904 5905
5852 5851 5850 5848 5848 5848 5847 5847 5847 5847 5852 5850 5852 5855 5852 5853 5856 5854 5856 5858 5859 5859 5857 5858 5859 5865 5866 5869 5873 5877 5880 5886 5888 5889 5889 5891 5895 5894 5895 5899 5900 5901 5905 5905 5906
5840 5841 5841 5839 5839 5838 5838 5839 5838 5839 5842 5849 5844 5848 5846 5845 5851 5851 5851 5851 5853 5853 5853 5855 5859 5858 5861 5863 5867 5871 5876 5883 5887 5885 5885 5888 5891 5890 5892 5893 5895 5898 5902 5906 5905
5828 5827 5828 5829 5828 5827 5827 5830 5829 5830 5829 5841 5835 5838 5840 5839 5843 5845 5847 5847 5847 5850 5848 5851 5852 5852 5853 5857 5861 5866 5874 5880 5880 5879 5880 5883 5886 5886 5890 5889 5891 5895 5900 5905 5903
5815 5814 5814 5815 5815 5813 5815 5817 5819 5819 5813 5828 5826 5828 5832 5833 5835 5836 5836 5838 5840 5842 5842 5850 5848 5849 5850 5854 5857 5867 5867 5872 5875 5875 5876 5876 5879 5885 5889 5885 5888 5893 5898 5903 5904
5799 5799 5799 5798 5800 5801 5799 5802 5805 5807 5799 5811 5812 5818 5821 5823 5824 5824 5827 5830 5833 5833 5835 5842 5841 5842 5846 5847 5850 5861 5861 5865 5868 5868 5861 5870 5872 5875 5880 5887 5888 5889 5896 5900 5901
5781 5780 5779 5781 5780 5785 5785 5785 5789 5788 5792 5798 5792 5803 5809 5811 5812 5814 5815 5819 5824 5825 5831 5833 5834 5837 5839 5842 5844 5848 5853 5854 5856 5851 5847 5863 5863 5870 5877 5881 5883 5886 5891 5893 5897
5762 5761 5760 5757 5762 5762 5766 5767 5768 5774 5777 5777 5780 5782 5792 5796 5802 5802 5803 5808 5812 5815 5821 5822 5826 5830 5836 5836 5840 5840 5842 5843 5842 5844 5849 5857 5849 5859 5872 5875 5878 5882 5884 5886 5891
5739 5740 5736 5733 5738 5741 5743 5745 5751 5755 5756 5762 5768 5769 5771 5777 5784 5787 5790 5795 5802 5804 5808 5812 5816 5824 5823 5829 5831 5835 5829 5841 5842 5846 5844 5845 5849 5857 5863 5868 5871 5874 5877 5881 5885
5713 5715 5709 5708 5712 5715 5718 5725 5728 5729 5732 5738 5747 5750 5753 5756 5761 5770 5777 5784 5787 5790 5796 5802 5805 5813 5816 5817 5817 5821 5831 5830 5828 5830 5832 5837 5841 5846 5856 5863 5865 5868 5872 5876 5880
5680 5684 5678 5677 5679 5684 5690 5697 5703 5705 5706 5714 5719 5726 5733 5736 5741 5748 5761 5769 5769 5777 5781 5787 5790 5803 5803 5799 5810 5813 5813 5818 5823 5825 5825 5829 5828 5842 5851 5857 5861 5863 5867 5874 5876
5642 5645 5641 5644 5646 5652 5660 5664 5669 5674 5678 5681 5689 5699 5706 5713 5723 5727 5740 5750 5752 5757 5759 5763 5773 5781 5785 5796 5800 5801 5803 5809 5810 5815 5819 5823 5818 5837 5845 5851 5853 5857 5862 5867 5871
5604 5605 5602 5604 5609 5615 5621 5628 5634 5638 5644 5649 5659 5668 5679 5689 5701 5707 5717 5725 5726 5735 5741 5746 5756 5763 5772 5777 5778 5779 5794 5800 5804 5808 5806 5811 5815 5832 5836 5842 5846 5850 5852 5856 5859
5571 5572 5573 5568 5575 5581 5590 5597 5603 5607 5610 5618 5632 5637 5650 5661 5673 5685 5692 5703 5709 5716 5722 5727 5740 5745 5756 5767 5773 5775 5782 5788 5793 5792 5800 5797 5807 5825 5828 5833 5837 5841 5845 5849 5851
5555 5553 5551 5553 5556 5558 5564 5573 5576 5580 5584 5593 5600 5610 5621 5632 5644 5656 5668 5679 5691 5697 5704 5712 5722 5726 5738 5745 5758 5765 5772 5778 5780 5788 5786 5800 5799 5813 5823 5826 5830 5833 5840 5842 5845
5551 5548 5547 5547 5548 5549 5552 5558 5563 5564 5568 5573 5577 5587 5597 5606 5614 5631 5646 5660 5668 5680 5690 5695 5703 5708 5719 5732 5738 5747 5758 5765 5769 5776 5779 5787 5793 5800 5811 5816 5820 5824 5826 5830 5838
5547 5545 5544 5544 5543 5544 5545 5549 5553 5557 5559 5561 5565 5570 5577 5584 5590 5607 5622 5637 5650 5661 5673 5680 5685 5693 5703 5716 5724 5729 5738 5750 5757 5764 5771 5773 5785 5794 5798 5806 5810 5816 5818 5824 5829